EDT,Max TemperatureF,Mean TemperatureF,Min TemperatureF,Max Dew PointF,MeanDew PointF,Min DewpointF,Max Humidity, Mean Humidity, Min Humidity, Max Sea Level PressureIn, Mean Sea Level PressureIn, Min Sea Level PressureIn, Max VisibilityMiles, Mean VisibilityMiles, Min VisibilityMiles, Max Wind SpeedMPH, Mean Wind SpeedMPH, Max Gust SpeedMPH,PrecipitationIn, CloudCover, Events, WindDirDegrees
2013-7-1,87,81,75,75,73,71,88,76,63,30.02,29.91,29.83,10,10,7,23,10,28,0.34,5,Rain,192
2013-7-2,83,79,75,75,73,71,94,82,69,30.17,30.10,30.02,10,9,3,20,8,23,0.80,7,Rain,182
2013-7-3,88,82,76,77,74,72,94,82,69,30.23,30.18,30.14,10,10,3,22,8,29,0.56,5,Rain-Thunderstorm,162
2013-7-4,88,82,76,76,74,73,88,77,65,30.24,30.21,30.18,10,10,10,23,11,31,0.08,4,Rain,148
2013-7-5,90,83,75,76,74,72,87,73,59,30.24,30.21,30.17,10,10,2,28,8,35,0.13,4,Rain,153
2013-7-6,89,82,74,74,72,71,94,77,59,30.22,30.19,30.15,10,10,9,23,9,26,0.01,3,,148
2013-7-7,89,82,74,74,71,70,87,70,52,30.20,30.17,30.12,10,10,10,15,7,20,0.00,3,,170
2013-7-8,89,81,72,73,71,69,93,74,55,30.21,30.18,30.14,10,10,10,14,4,17,0.00,5,,194
2013-7-9,89,82,74,74,71,68,93,73,52,30.21,30.16,30.11,10,10,10,15,6,20,0.00,4,,190
2013-7-10,90,82,74,74,71,67,87,69,50,30.13,30.07,30.00,10,10,10,14,6,17,0.00,4,,195
2013-7-11,90,83,75,74,72,70,87,73,59,30.02,29.97,29.91,10,10,10,20,9,24,T,4,Rain,204
2013-7-12,81,78,74,74,73,71,94,87,79,29.97,29.93,29.89,10,10,2,13,3,17,0.63,6,Rain-Thunderstorm,142
2013-7-13,87,81,75,75,73,71,94,80,65,30.09,30.01,29.95,10,10,9,20,8,23,0.06,6,Rain,69
2013-7-14,89,82,75,74,72,71,88,74,59,30.22,30.16,30.09,10,10,4,24,11,33,0.40,5,Rain,117
2013-7-15,90,83,76,75,73,71,88,72,56,30.25,30.23,30.20,10,10,10,20,10,25,0.00,4,,81
2013-7-16,91,83,75,75,72,69,94,73,52,30.28,30.24,30.22,10,10,10,14,6,22,0.00,3,,85
2013-7-17,96,85,74,76,71,67,94,72,49,30.23,30.18,30.11,10,10,10,20,5,32,T,4,Rain-Thunderstorm,265
2013-7-18,91,82,72,74,71,69,87,70,52,30.17,30.13,30.09,10,10,10,13,5,,0.00,3,Thunderstorm,205
2013-7-19,89,82,75,74,72,69,87,71,55,30.14,30.10,30.04,10,10,10,21,8,25,T,3,,187
2013-7-20,89,83,76,74,72,68,87,73,59,30.10,30.06,30.01,10,10,1,24,9,31,0.29,5,Rain,209
2013-7-21,87,80,73,76,72,71,93,81,69,30.07,30.02,29.96,10,9,1,22,7,26,0.35,6,Rain-Thunderstorm,232
2013-7-22,91,83,75,73,72,70,88,72,55,30.03,29.98,29.93,10,10,10,18,10,26,0.00,5,,244
2013-7-23,91,84,77,73,71,70,82,67,52,29.95,29.89,29.82,10,10,10,17,10,22,0.00,5,,249
2013-7-24,87,81,74,73,72,69,87,74,61,29.84,29.81,29.77,10,10,10,12,5,14,0.00,5,,259
2013-7-25,94,84,74,76,71,67,88,70,52,29.99,29.88,29.79,10,10,9,12,4,15,0.00,4,Thunderstorm,6
2013-7-26,87,81,74,75,72,69,93,77,61,30.06,30.03,29.98,10,10,10,21,7,25,0.13,3,Rain,87
2013-7-27,89,82,75,75,74,73,94,79,63,30.04,29.98,29.93,10,10,9,22,7,29,0.05,5,Rain,141
2013-7-28,88,83,77,75,74,72,91,77,63,30.03,29.98,29.94,10,10,8,9,4,13,T,6,Rain,221
2013-7-29,93,84,74,77,73,70,94,72,49,30.16,30.09,30.03,10,9,2,24,4,31,1.14,5,Fog-Rain-Thunderstorm,186
2013-7-30,91,82,73,76,74,71,93,78,63,30.19,30.15,30.12,10,10,10,18,4,23,T,4,Fog-Rain-Thunderstorm,154
2013-7-31,89,82,75,77,73,70,100,82,63,30.14,30.09,30.04,10,9,2,20,4,24,0.38,6,Fog-Rain-Thunderstorm,188